Starlink 31854

operational
NORAD ID: 59671 Int'l Des: 2024-084 Owner: SPXS Country: US Constellation: starlink
LEOCIRCULAR

关于 Starlink 31854

正在加载描述...

实时位置

正在加载3D地球...

即将过境

高度历史

Altitude vs Time

uPlot chart will show altitude changes over time

两行轨道根数

1 59671U 24084T 25305.55617309 .00001760 00000-0 73487-4 0 9994
2 59671 43.0034 12.3998 0001129 252.6593 107.4135 15.27561941 85130
Epoch: Nov 1, 2025 • Age: 22 hours

当前状态

高度 484.9 km
速度 7.63 km/s
星下点 33.23°N, 163.75°W
发射日期 May 6, 2024
运行时间 1.4 years
类型 internet

技术详情

分类 Payload
质量 730.00 kg
干质量 700.00 kg
总质量 730.00 kg
长度 0.30 m
直径 4.10 m
跨度 29.00 m
形状 Box + pan
制造商 SPXS
平台类型 Starlink V2M
阶段状态 In Orbit
所有者/国家 SPXS/US

大型星座

Loading constellations...